Weather History for Black River Falls, WI

Change the Weather History Date:

Friday, December 14, 2012

  Actual Average (KLSE) Record (KLSE)
Temperature  
Mean Temperature 29 °F 22 °F  
Max Temperature 44 °F 29 °F 56 °F (1998)
Min Temperature 14 °F 14 °F -23 °F (1901)
Degree Days  
Heating Degree Days 36 43  
Month to date heating degree days 570  
Since 1 July heating degree days 2070  
Cooling Degree Days 0 0  
Month to date cooling degree days 0  
Year to date cooling degree days 782  
Moisture  
Dew Point 23 °F    
Average Humidity 81    
Maximum Humidity 100    
Minimum Humidity 46    
Precipitation  
Precipitation 0.00 in 0.05 in 1.13 in (1891)
Month to date precipitation 0.72  
Year to date precipitation 32.42  
Snow  
Snow 0.00 in 0.40 in 6.10 in (2005)
Month to date snowfall 5.5  
Since 1 July snowfall 9.8  
Snow Depth -    
Sea Level Pressure  
Sea Level Pressure 30.06 in    
Wind  
Wind Speed 2 mph (East)    
Max Wind Speed 9 mph    
Max Gust Speed -    
Visibility 10 miles    
Events      
T = Trace of Precipitation, MM = Missing Value Source: NWS Daily Summary

Daily Weather History Graph

Daily Weather History Graph

Search for Another Location

Airport:

Trip Planner

Search our weather history database for the weather conditions in past years. The results will help you decide how hot, cold, wet, or windy it might be!

Date:

Astronomy

Dec. 14, 2012 Rise Set
Actual Time 7:31 AM CST 4:24 PM CST
Civil Twilight 6:58 AM CST 4:58 PM CST
Nautical Twilight 6:21 AM CST 5:34 PM CST
Astronomical Twilight 5:46 AM CST 6:10 PM CST
Moon 8:34 AM CST (12/14) 6:20 PM CST (12/14)
Length of Visible Light 9h 59m
Length of Day
8h 53m
Waxing Crescent, 3% of the Moon is Illuminated
Dec 14
Waxing Crescent
Dec 19
First Quarter
Dec 28
Full
Jan 4
Last Quarter
Jan 11
New

Hourly Weather History & Observations

Time (CST) Temp. Windchill Dew Point Humidity Pressure Visibility Wind Dir Wind Speed Gust Speed Precip Events Conditions
12:15 AM 15.8 °F - 15.8 °F 100% 30.12 in 10.0 mi Calm Calm - N/A   Clear
12:35 AM 15.8 °F - 15.8 °F 100% 30.12 in 10.0 mi Calm Calm - N/A   Clear
12:55 AM 15.8 °F - 15.8 °F 100% 30.11 in 10.0 mi Calm Calm - N/A   Clear
1:15 AM 17.6 °F - 17.6 °F 100% 30.12 in 10.0 mi Calm Calm - N/A   Clear
1:55 AM 14.0 °F - 14.0 °F 100% 30.13 in 10.0 mi Calm Calm - N/A   Clear
2:15 AM 15.8 °F - 14.0 °F 93% 30.13 in 10.0 mi Calm Calm - N/A   Clear
2:35 AM 15.8 °F - 15.8 °F 100% 30.13 in 10.0 mi Calm Calm - N/A   Clear
2:55 AM 17.6 °F - 17.6 °F 100% 30.14 in 10.0 mi Calm Calm - N/A   Clear
3:15 AM 19.4 °F - 19.4 °F 100% 30.14 in 10.0 mi Calm Calm - N/A   Clear
3:35 AM 17.6 °F - 17.6 °F 100% 30.14 in 10.0 mi Calm Calm - N/A   Clear
3:55 AM 17.6 °F - 17.6 °F 100% 30.14 in 7.0 mi Calm Calm - N/A   Clear
4:15 AM 17.6 °F - 17.6 °F 100% 30.14 in 7.0 mi Calm Calm - N/A   Clear
4:35 AM 17.6 °F - 17.6 °F 100% 30.14 in 7.0 mi Calm Calm - N/A   Clear
4:55 AM 17.6 °F - 17.6 °F 100% 30.13 in 10.0 mi Calm Calm - N/A   Clear
5:15 AM 17.6 °F - 17.6 °F 100% 30.13 in 10.0 mi Calm Calm - N/A   Clear
5:35 AM 17.6 °F - 17.6 °F 100% 30.14 in 10.0 mi Calm Calm - N/A   Clear
5:55 AM 17.6 °F - 17.6 °F 100% 30.13 in 10.0 mi Calm Calm - N/A   Clear
6:15 AM 17.6 °F - 17.6 °F 100% 30.13 in 10.0 mi Calm Calm - N/A   Clear
6:35 AM 15.8 °F - 15.8 °F 100% 30.13 in 10.0 mi Calm Calm - N/A   Clear
6:55 AM 15.8 °F - 15.8 °F 100% 30.13 in 7.0 mi Calm Calm - N/A   Clear
7:15 AM 15.8 °F - 15.8 °F 100% 30.13 in 10.0 mi Calm Calm - N/A   Clear
7:35 AM 17.6 °F - 17.6 °F 100% 30.13 in 7.0 mi Calm Calm - N/A   Clear
7:55 AM 15.8 °F - 15.8 °F 100% 30.13 in 7.0 mi Calm Calm - N/A   Clear
8:15 AM 17.6 °F - 17.6 °F 100% 30.13 in 7.0 mi Calm Calm - N/A   Clear
8:55 AM 19.4 °F 14.3 °F 19.4 °F 100% 30.15 in 10.0 mi NNE 3.5 mph - N/A   Clear
9:15 AM 21.2 °F - 21.2 °F 100% 30.15 in 10.0 mi Calm Calm - N/A   Clear
9:35 AM 24.8 °F 20.5 °F 24.8 °F 100% 30.15 in 10.0 mi ENE 3.5 mph - N/A   Clear
9:55 AM 26.6 °F 22.6 °F 26.6 °F 100% 30.15 in 10.0 mi East 3.5 mph - N/A   Clear
10:15 AM 28.4 °F - 24.8 °F 86% 30.15 in 10.0 mi Calm Calm - N/A   Clear
10:35 AM 32.0 °F 27.5 °F 26.6 °F 80% 30.14 in 10.0 mi NE 4.6 mph - N/A   Clear
10:55 AM 33.8 °F 27.7 °F 24.8 °F 70% 30.13 in 10.0 mi ENE 6.9 mph - N/A   Clear
11:15 AM 37.4 °F 32.8 °F 23.0 °F 56% 30.12 in 10.0 mi East 5.8 mph - N/A   Clear
11:35 AM 37.4 °F 32.8 °F 23.0 °F 56% 30.11 in 10.0 mi ESE 5.8 mph - N/A   Clear
11:55 AM 39.2 °F 35.0 °F 23.0 °F 52% 30.09 in 10.0 mi East 5.8 mph - N/A   Clear
12:15 PM 41.0 °F 38.0 °F 23.0 °F 49% 30.08 in 10.0 mi ESE 4.6 mph - N/A   Clear
12:35 PM 41.0 °F 36.4 °F 23.0 °F 49% 30.06 in 10.0 mi ESE 6.9 mph - N/A   Clear
12:55 PM 42.8 °F 38.6 °F 24.8 °F 49% 30.06 in 10.0 mi ESE 6.9 mph - N/A   Clear
1:15 PM 42.8 °F 38.0 °F 24.8 °F 49% 30.05 in 10.0 mi East 8.1 mph - N/A   Clear
1:35 PM 42.8 °F 39.3 °F 24.8 °F 49% 30.05 in 10.0 mi ESE 5.8 mph - N/A   Clear
1:55 PM 42.8 °F 38.0 °F 24.8 °F 49% 30.03 in 10.0 mi East 8.1 mph - N/A   Clear
2:15 PM 42.8 °F 37.5 °F 24.8 °F 49% 30.02 in 10.0 mi ESE 9.2 mph - N/A   Clear
2:35 PM 42.8 °F 38.6 °F 24.8 °F 49% 30.01 in 10.0 mi ESE 6.9 mph - N/A   Clear
2:55 PM 44.6 °F 40.7 °F 24.8 °F 46% 30.01 in 10.0 mi SE 6.9 mph - N/A   Clear
3:15 PM 42.8 °F 39.3 °F 24.8 °F 49% 30.01 in 10.0 mi SE 5.8 mph - N/A   Clear
3:35 PM 42.8 °F 41.1 °F 24.8 °F 49% 30.02 in 10.0 mi SE 3.5 mph - N/A   Clear
4:15 PM 39.2 °F 37.0 °F 26.6 °F 61% 30.01 in 10.0 mi East 3.5 mph - N/A   Clear
4:35 PM 37.4 °F 34.9 °F 26.6 °F 65% 30.00 in 10.0 mi East 3.5 mph - N/A   Clear
4:55 PM 37.4 °F 33.8 °F 26.6 °F 65% 30.01 in 10.0 mi East 4.6 mph - N/A   Clear
5:15 PM 37.4 °F 32.1 °F 26.6 °F 65% 30.00 in 10.0 mi ESE 6.9 mph - N/A   Clear
5:35 PM 37.4 °F 33.8 °F 26.6 °F 65% 30.00 in 10.0 mi East 4.6 mph - N/A   Clear
5:55 PM 35.6 °F 29.9 °F 26.6 °F 70% 29.99 in 10.0 mi East 6.9 mph - N/A   Clear
6:15 PM 35.6 °F 32.8 °F 26.6 °F 70% 30.00 in 10.0 mi East 3.5 mph - N/A   Clear
6:35 PM 35.6 °F 29.9 °F 26.6 °F 70% 29.99 in 10.0 mi ESE 6.9 mph - N/A   Clear
6:55 PM 35.6 °F 31.7 °F 28.4 °F 75% 29.99 in 10.0 mi East 4.6 mph - N/A   Clear
7:15 PM 35.6 °F 31.7 °F 28.4 °F 75% 29.99 in 10.0 mi East 4.6 mph - N/A   Clear
7:35 PM 35.6 °F 29.9 °F 28.4 °F 75% 29.99 in 10.0 mi ESE 6.9 mph - N/A   Clear
7:55 PM 35.6 °F 29.9 °F 28.4 °F 75% 29.99 in 10.0 mi ESE 6.9 mph - N/A   Clear
8:15 PM 35.6 °F 31.7 °F 30.2 °F 81% 29.98 in 10.0 mi East 4.6 mph - N/A   Clear
8:35 PM 35.6 °F 30.7 °F 30.2 °F 81% 29.98 in 10.0 mi East 5.8 mph - N/A   Clear
8:55 PM 35.6 °F 29.2 °F 30.2 °F 81% 29.98 in 10.0 mi ESE 8.1 mph - N/A   Clear
9:15 PM 35.6 °F 29.9 °F 30.2 °F 81% 29.98 in 10.0 mi ESE 6.9 mph - N/A   Clear
9:35 PM 35.6 °F 29.9 °F 30.2 °F 81% 29.97 in 10.0 mi East 6.9 mph - N/A   Mostly Cloudy
10:15 PM 35.6 °F 29.9 °F 32.0 °F 87% 29.95 in 10.0 mi East 6.9 mph - N/A   Overcast
10:35 PM 35.6 °F 29.9 °F 32.0 °F 87% 29.94 in 10.0 mi East 6.9 mph - N/A   Overcast
10:55 PM 35.6 °F 29.2 °F 32.0 °F 87% 29.93 in 7.0 mi East 8.1 mph - N/A   Overcast
11:15 PM 35.6 °F 29.9 °F 32.0 °F 87% 29.93 in 7.0 mi East 6.9 mph - N/A   Overcast
11:35 PM 35.6 °F 29.9 °F 32.0 °F 87% 29.92 in 7.0 mi East 6.9 mph - N/A   Overcast
11:55 PM 35.6 °F 29.9 °F 32.0 °F 87% 29.91 in 7.0 mi East 6.9 mph - N/A   Overcast